York, PA

5:52 AM EST on December 16, 2019 (GMT -0500)
York

Weather History for KTHV - October, 2019

Change the Weather History Date:

Tuesday, October 15, 2019

  Actual Average Record
Temperature  
Mean Temperature 52 °F -  
Max Temperature 68 °F 0 °F 78 °F (2000)
Min Temperature 36 °F - 25 °F (2006)
Degree Days  
Heating Degree Days 13    
Growing Degree Days 2 (Base 50)    
Moisture  
Dew Point 39 °F    
Average Humidity 64    
Maximum Humidity 93    
Minimum Humidity 35    
Precipitation  
Precipitation 0.00 in - - ()
Sea Level Pressure  
Sea Level Pressure 30.11 in    
Wind  
Wind Speed 1 mph ()    
Max Wind Speed 6 mph    
Max Gust Speed -    
Visibility 10.0 miles    
Events      
Averages and records for this station are not official NWS values.
T = Trace of Precipitation, MM = Missing Value Source: Averaged Metar Reports

Daily Weather History Graph

Daily Weather History Graph

Search for Another Location

Airport or City:

Astronomy

Oct. 15, 2019 Rise Set
Actual Time 7:17 AM EDT 6:28 PM EDT
Civil Twilight 6:50 AM EDT 6:55 PM EDT
Nautical Twilight 6:18 AM EDT 7:26 PM EDT
Astronomical Twilight 5:47 AM EDT 7:58 PM EDT
Moon 7:47 PM EDT (10/15) 8:46 AM EDT (10/15)
Length of Visible Light 12h 05m
Length of Day
11h 10m
Full, 97% of the Moon is Illuminated
Oct 15
Full
Oct 21
Last Quarter
Oct 27
New
Nov 4
First Quarter
Nov 12
Full

Hourly Weather History & Observations

Time (EDT) Temp. Dew Point Humidity Pressure Visibility Wind Dir Wind Speed Gust Speed Precip Events Conditions
12:53 AM 39.9 °F 37.0 °F 89% 30.10 in 10.0 mi Calm Calm - N/A   Clear
1:53 AM 39.0 °F 36.0 °F 89% 30.11 in 10.0 mi Calm Calm - N/A   Clear
2:53 AM 37.9 °F 36.0 °F 93% 30.12 in 10.0 mi Calm Calm - N/A   Clear
3:53 AM 37.0 °F 35.1 °F 93% 30.12 in 10.0 mi Calm Calm - N/A   Clear
4:53 AM 37.9 °F 35.1 °F 89% 30.14 in 10.0 mi Calm Calm - N/A   Clear
5:53 AM 37.0 °F 34.0 °F 89% 30.16 in 10.0 mi Calm Calm - N/A   Clear
6:53 AM 36.0 °F 34.0 °F 93% 30.19 in 10.0 mi Calm Calm - N/A   Clear
7:53 AM 37.0 °F 35.1 °F 93% 30.19 in 10.0 mi Calm Calm - N/A   Clear
8:53 AM 48.0 °F 43.0 °F 83% 30.20 in 10.0 mi Calm Calm - N/A   Clear
10:53 AM 59.0 °F 41.0 °F 51% 30.19 in 10.0 mi Variable 5.8 mph - N/A   Clear
11:53 AM 62.1 °F 39.0 °F 43% 30.19 in 10.0 mi Calm Calm - N/A   Clear
12:53 PM 63.0 °F 39.0 °F 41% 30.16 in 10.0 mi Calm Calm - N/A   Clear
1:53 PM 66.0 °F 39.9 °F 38% 30.13 in 10.0 mi ENE 5.8 mph - N/A   Clear
2:53 PM 66.9 °F 39.0 °F 36% 30.10 in 10.0 mi Variable 4.6 mph - N/A   Clear
3:53 PM 68.0 °F 39.0 °F 35% 30.07 in 10.0 mi Variable 3.5 mph - N/A   Clear
4:53 PM 68.0 °F 39.9 °F 36% 30.05 in 10.0 mi Variable 3.5 mph - N/A   Clear
5:53 PM 64.9 °F 39.9 °F 40% 30.05 in 10.0 mi Variable 4.6 mph - N/A   Clear
6:53 PM 61.0 °F 41.0 °F 48% 30.05 in 10.0 mi SSE 5.8 mph - N/A   Clear
7:53 PM 59.0 °F 39.9 °F 49% 30.05 in 10.0 mi Variable 4.6 mph - N/A   Clear
8:53 PM 54.0 °F 39.9 °F 59% 30.04 in 10.0 mi SE 5.8 mph - N/A   Clear
9:53 PM 57.0 °F 39.0 °F 51% 30.03 in 10.0 mi Variable 3.5 mph - N/A   Clear
10:53 PM 55.9 °F 39.9 °F 55% 30.01 in 10.0 mi Variable 3.5 mph - N/A   Clear
11:53 PM 54.0 °F 44.1 °F 69% 30.01 in 10.0 mi Variable 3.5 mph - N/A   Clear